Location: Beaver Brook Trail
(44.0290°N, 71.8137°W)
Time: 14:37:13
(UTC+00:00)

Explorer 11/Cluster Stage 4 - All Passes

Search period start: 02 November 2024 00:00
Search period end: 12 November 2024 00:00
Orbit: 464 x 1206 km, 28.8° (Epoch: 01 November)

Date Brightness Start Highest point End Pass type
(mag) Time Alt. Az. Time Alt. Az. Time Alt. Az.
02 Nov - 15:09:41 10° SSW 15:11:35 12° S 15:13:37 10° SSE daylight
02 Nov - 16:55:59 10° SW 16:58:32 14° S 17:01:18 10° SSE daylight
03 Nov - 14:50:37 10° S 14:52:02 11° S 14:53:32 10° SSE daylight
03 Nov - 16:37:01 10° SSW 16:38:56 12° S 16:40:59 10° SSE daylight
04 Nov - 14:31:44 10° S 14:32:29 10° S 14:33:16 10° SSE daylight
04 Nov - 16:18:20 10° SSW 16:19:21 11° S 16:20:24 10° S daylight
